Time,TemperatureF,DewpointF,PressureIn,WindDirection,WindDirectionDegrees,WindSpeedMPH,WindSpeedGustMPH,Humidity,HourlyPrecipIn,Conditions,Clouds,dailyrainin,SoftwareType,DateUTC
2013-03-06 01:40:00,26.6,21.8,30.10,NW,315,9.0,9.0,82,0.00,,,0.00,WUHU21023XXSP,2013-03-06 07:40:00,
2013-03-06 01:46:00,26.4,21.6,30.10,NW,315,7.0,9.0,82,0.00,,,0.00,WUHU21023XXSP,2013-03-06 07:46:00,
2013-03-06 01:53:00,26.4,21.6,30.09,NW,315,2.0,9.0,82,0.00,,,0.00,WUHU21023XXSP,2013-03-06 07:53:00,
2013-03-06 01:59:00,26.4,21.3,30.09,NNW,337,9.0,9.0,81,0.00,,,0.00,WUHU21023XXSP,2013-03-06 07:59:00,
2013-03-06 02:05:00,26.4,21.3,30.10,NW,315,7.0,9.0,81,0.00,,,0.00,WUHU21023XXSP,2013-03-06 08:05:00,
2013-03-06 02:12:00,26.2,21.1,30.10,NNW,337,4.0,7.0,81,0.00,,,0.00,WUHU21023XXSP,2013-03-06 08:12:00,
2013-03-06 02:20:00,26.2,21.1,30.10,WNW,292,8.0,8.0,81,0.00,,,0.00,WUHU21023XXSP,2013-03-06 08:20:00,
2013-03-06 02:27:00,26.1,21.0,30.11,NW,315,8.0,8.0,81,0.00,,,0.00,WUHU21023XXSP,2013-03-06 08:27:00,
2013-03-06 02:33:00,26.1,21.3,30.11,NW,315,8.0,8.0,82,0.00,,,0.00,WUHU21023XXSP,2013-03-06 08:33:00,
2013-03-06 02:42:00,25.9,21.1,30.11,NW,315,7.0,8.0,82,0.00,,,0.00,WUHU21023XXSP,2013-03-06 08:42:00,
2013-03-06 02:48:00,25.9,21.1,30.11,NW,315,3.0,7.0,82,0.00,,,0.00,WUHU21023XXSP,2013-03-06 08:48:00,
2013-03-06 02:55:00,25.9,21.1,30.11,NNW,337,9.0,9.0,82,0.00,,,0.00,WUHU21023XXSP,2013-03-06 08:55:00,
2013-03-06 03:01:00,25.7,20.9,30.12,NW,315,9.0,9.0,82,0.00,,,0.00,WUHU21023XXSP,2013-03-06 09:01:00,
2013-03-06 03:07:00,25.7,20.9,30.12,NW,315,7.0,9.0,82,0.00,,,0.00,WUHU21023XXSP,2013-03-06 09:07:00,
2013-03-06 03:14:00,25.7,20.9,30.12,NW,315,7.0,9.0,82,0.00,,,0.00,WUHU21023XXSP,2013-03-06 09:14:00,
2013-03-06 03:20:00,25.7,20.9,30.12,NNW,337,9.0,9.0,82,0.00,,,0.00,WUHU21023XXSP,2013-03-06 09:20:00,
2013-03-06 03:27:00,25.7,21.2,30.13,NW,315,8.0,9.0,83,0.00,,,0.00,WUHU21023XXSP,2013-03-06 09:27:00,
2013-03-06 03:33:00,25.7,21.2,30.13,NW,315,7.0,8.0,83,0.00,,,0.00,WUHU21023XXSP,2013-03-06 09:33:00,
2013-03-06 03:42:00,25.7,21.2,30.13,NNW,337,7.0,9.0,83,0.00,,,0.00,WUHU21023XXSP,2013-03-06 09:42:00,
2013-03-06 03:48:00,25.7,21.2,30.13,NW,315,6.0,7.0,83,0.00,,,0.00,WUHU21023XXSP,2013-03-06 09:48:00,
2013-03-06 03:55:00,25.7,21.2,30.13,NW,315,6.0,8.0,83,0.00,,,0.00,WUHU21023XXSP,2013-03-06 09:55:00,
2013-03-06 04:01:00,25.7,21.2,30.14,NW,315,6.0,8.0,83,0.00,,,0.00,WUHU21023XXSP,2013-03-06 10:01:00,
2013-03-06 04:07:00,25.7,21.2,30.14,NW,315,6.0,6.0,83,0.00,,,0.00,WUHU21023XXSP,2013-03-06 10:07:00,
2013-03-06 04:16:00,25.7,21.2,30.14,NNW,337,6.0,7.0,83,0.00,,,0.00,WUHU21023XXSP,2013-03-06 10:16:00,
2013-03-06 04:22:00,25.7,21.2,30.15,NW,315,5.0,7.0,83,0.00,,,0.00,WUHU21023XXSP,2013-03-06 10:22:00,
2013-03-06 04:29:00,25.7,21.2,30.15,NW,315,6.0,7.0,83,0.00,,,0.00,WUHU21023XXSP,2013-03-06 10:29:00,
2013-03-06 04:35:00,25.7,21.2,30.16,NW,315,7.0,9.0,83,0.00,,,0.00,WUHU21023XXSP,2013-03-06 10:35:00,
2013-03-06 04:42:00,25.9,21.4,30.16,NW,315,6.0,9.0,83,0.00,,,0.00,WUHU21023XXSP,2013-03-06 10:42:00,
2013-03-06 04:48:00,25.9,21.4,30.16,NW,315,7.0,7.0,83,0.00,,,0.00,WUHU21023XXSP,2013-03-06 10:48:00,
2013-03-06 04:55:00,25.9,21.4,30.16,NW,315,7.0,7.0,83,0.00,,,0.00,WUHU21023XXSP,2013-03-06 10:55:00,
2013-03-06 05:01:00,25.9,21.4,30.16,NW,315,7.0,8.0,83,0.00,,,0.00,WUHU21023XXSP,2013-03-06 11:01:00,
2013-03-06 05:07:00,25.9,21.4,30.16,NW,315,5.0,8.0,83,0.00,,,0.00,WUHU21023XXSP,2013-03-06 11:07:00,
2013-03-06 05:14:00,25.9,21.4,30.16,NW,315,6.0,6.0,83,0.00,,,0.00,WUHU21023XXSP,2013-03-06 11:14:00,
2013-03-06 05:20:00,26.1,21.6,30.16,NNW,337,0.0,8.0,83,0.00,,,0.00,WUHU21023XXSP,2013-03-06 11:20:00,
2013-03-06 05:27:00,26.1,21.6,30.17,NNW,337,5.0,8.0,83,0.00,,,0.00,WUHU21023XXSP,2013-03-06 11:27:00,
2013-03-06 05:33:00,26.1,21.6,30.17,NW,315,7.0,7.0,83,0.00,,,0.00,WUHU21023XXSP,2013-03-06 11:33:00,
2013-03-06 05:39:00,26.2,21.7,30.16,NNW,337,5.0,11.0,83,0.00,,,0.00,WUHU21023XXSP,2013-03-06 11:39:00,
2013-03-06 05:46:00,26.2,21.7,30.16,NNW,337,6.0,11.0,83,0.00,,,0.00,WUHU21023XXSP,2013-03-06 11:46:00,
2013-03-06 05:52:00,26.2,21.7,30.17,NW,315,1.0,7.0,83,0.00,,,0.00,WUHU21023XXSP,2013-03-06 11:52:00,
2013-03-06 05:59:00,26.2,21.7,30.17,NNW,337,3.0,7.0,83,0.00,,,0.00,WUHU21023XXSP,2013-03-06 11:59:00,
2013-03-06 06:05:00,26.2,21.7,30.16,NNW,337,4.0,4.0,83,0.00,,,0.00,WUHU21023XXSP,2013-03-06 12:05:00,
2013-03-06 06:12:00,26.2,21.7,30.17,NW,315,3.0,4.0,83,0.00,,,0.00,WUHU21023XXSP,2013-03-06 12:12:00,
2013-03-06 06:18:00,26.2,21.7,30.17,NW,315,5.0,5.0,83,0.00,,,0.00,WUHU21023XXSP,2013-03-06 12:18:00,
2013-03-06 06:24:00,26.2,21.7,30.17,NNW,337,0.0,5.0,83,0.00,,,0.00,WUHU21023XXSP,2013-03-06 12:24:00,
2013-03-06 06:31:00,26.2,21.7,30.18,NNW,337,0.0,0.0,83,0.00,,,0.00,WUHU21023XXSP,2013-03-06 12:31:00,
2013-03-06 06:37:00,26.2,21.7,30.18,NW,315,0.0,0.0,83,0.00,,,0.00,WUHU21023XXSP,2013-03-06 12:37:00,
2013-03-06 06:44:00,26.4,21.9,30.18,NW,315,5.0,5.0,83,0.00,,,0.00,WUHU21023XXSP,2013-03-06 12:44:00,
2013-03-06 06:50:00,26.2,21.7,30.18,NW,315,0.0,5.0,83,0.00,,,0.00,WUHU21023XXSP,2013-03-06 12:50:00,
2013-03-06 06:57:00,26.4,21.9,30.19,NW,315,0.0,7.0,83,0.00,,,0.00,WUHU21023XXSP,2013-03-06 12:57:00,
2013-03-06 07:03:00,26.4,21.9,30.19,NW,315,4.0,7.0,83,0.00,,,0.00,WUHU21023XXSP,2013-03-06 13:03:00,
2013-03-06 07:09:00,26.4,21.9,30.20,NW,315,4.0,4.0,83,0.00,,,0.00,WUHU21023XXSP,2013-03-06 13:09:00,
2013-03-06 07:16:00,26.6,22.1,30.21,WNW,292,6.0,6.0,83,0.00,,,0.00,WUHU21023XXSP,2013-03-06 13:16:00,
2013-03-06 07:22:00,26.8,22.2,30.21,NW,315,6.0,6.0,83,0.00,,,0.00,WUHU21023XXSP,2013-03-06 13:22:00,
2013-03-06 07:29:00,26.8,22.2,30.21,NW,315,4.0,7.0,83,0.00,,,0.00,WUHU21023XXSP,2013-03-06 13:29:00,
2013-03-06 07:35:00,26.8,22.2,30.21,NW,315,5.0,7.0,83,0.00,,,0.00,WUHU21023XXSP,2013-03-06 13:35:00,
2013-03-06 07:42:00,26.8,22.2,30.22,NW,315,6.0,8.0,83,0.00,,,0.00,WUHU21023XXSP,2013-03-06 13:42:00,
2013-03-06 07:48:00,27.0,22.4,30.21,NW,315,6.0,8.0,83,0.00,,,0.00,WUHU21023XXSP,2013-03-06 13:48:00,
2013-03-06 07:54:00,27.0,22.4,30.22,NW,315,6.0,10.0,83,0.00,,,0.00,WUHU21023XXSP,2013-03-06 13:54:00,
2013-03-06 08:01:00,27.0,22.7,30.22,NW,315,5.0,7.0,84,0.00,,,0.00,WUHU21023XXSP,2013-03-06 14:01:00,
2013-03-06 08:07:00,27.1,22.9,30.23,NW,315,7.0,7.0,84,0.00,,,0.00,WUHU21023XXSP,2013-03-06 14:07:00,
2013-03-06 08:14:00,27.1,22.9,30.23,NW,315,9.0,9.0,84,0.00,,,0.00,WUHU21023XXSP,2013-03-06 14:14:00,
2013-03-06 08:20:00,27.3,23.1,30.23,NW,315,7.0,9.0,84,0.00,,,0.00,WUHU21023XXSP,2013-03-06 14:20:00,
2013-03-06 08:27:00,27.3,22.8,30.23,NW,315,7.0,8.0,83,0.00,,,0.00,WUHU21023XXSP,2013-03-06 14:27:00,
2013-03-06 08:33:00,27.5,23.0,30.23,NW,315,7.0,10.0,83,0.00,,,0.00,WUHU21023XXSP,2013-03-06 14:33:00,
2013-03-06 08:39:00,28.0,23.5,30.24,NW,315,8.0,8.0,83,0.00,,,0.00,WUHU21023XXSP,2013-03-06 14:39:00,
2013-03-06 08:46:00,28.0,23.5,30.23,NW,315,7.0,8.0,83,0.00,,,0.00,WUHU21023XXSP,2013-03-06 14:46:00,
2013-03-06 08:52:00,28.2,23.7,30.24,NW,315,6.0,10.0,83,0.00,,,0.00,WUHU21023XXSP,2013-03-06 14:52:00,
2013-03-06 08:59:00,28.6,23.8,30.23,NW,315,6.0,7.0,82,0.00,,,0.00,WUHU21023XXSP,2013-03-06 14:59:00,
2013-03-06 09:05:00,28.8,24.2,30.23,NW,315,7.0,7.0,83,0.00,,,0.00,WUHU21023XXSP,2013-03-06 15:05:00,
2013-03-06 09:12:00,28.9,24.1,30.23,NW,315,6.0,9.0,82,0.00,,,0.00,WUHU21023XXSP,2013-03-06 15:12:00,
2013-03-06 09:18:00,29.3,24.5,30.24,NW,315,7.0,7.0,82,0.00,,,0.00,WUHU21023XXSP,2013-03-06 15:18:00,
2013-03-06 09:24:00,29.7,24.5,30.24,NW,315,4.0,7.0,81,0.00,,,0.00,WUHU21023XXSP,2013-03-06 15:24:00,
2013-03-06 09:31:00,30.0,24.9,30.24,NW,315,4.0,7.0,81,0.00,,,0.00,WUHU21023XXSP,2013-03-06 15:31:00,
2013-03-06 09:37:00,30.2,24.9,30.24,NNW,337,7.0,8.0,81,0.00,,,0.00,WUHU21023XXSP,2013-03-06 15:37:00,
2013-03-06 09:44:00,30.4,25.0,30.24,NW,315,0.0,8.0,80,0.00,,,0.00,WUHU21023XXSP,2013-03-06 15:44:00,
2013-03-06 09:50:00,30.7,25.3,30.24,NNW,337,5.0,7.0,80,0.00,,,0.00,WUHU21023XXSP,2013-03-06 15:50:00,
2013-03-06 09:57:00,31.3,25.9,30.24,NW,315,7.0,8.0,80,0.00,,,0.00,WUHU21023XXSP,2013-03-06 15:57:00,
2013-03-06 10:03:00,31.6,25.9,30.24,NW,315,7.0,8.0,79,0.00,,,0.00,WUHU21023XXSP,2013-03-06 16:03:00,
2013-03-06 10:09:00,31.8,26.1,30.25,NW,315,0.0,7.0,79,0.00,,,0.00,WUHU21023XXSP,2013-03-06 16:09:00,
2013-03-06 10:16:00,31.8,25.8,30.25,NW,315,3.0,6.0,78,0.00,,,0.00,WUHU21023XXSP,2013-03-06 16:16:00,
2013-03-06 10:22:00,31.8,25.8,30.25,WNW,292,0.0,6.0,78,0.00,,,0.00,WUHU21023XXSP,2013-03-06 16:22:00,
2013-03-06 10:29:00,32.2,25.8,30.25,WNW,292,5.0,7.0,77,0.00,,,0.00,WUHU21023XXSP,2013-03-06 16:29:00,
2013-03-06 10:35:00,32.4,26.0,30.25,WNW,292,7.0,7.0,77,0.00,,,0.00,WUHU21023XXSP,2013-03-06 16:35:00,
2013-03-06 10:42:00,32.4,26.0,30.25,NW,315,6.0,7.0,77,0.00,,,0.00,WUHU21023XXSP,2013-03-06 16:42:00,
2013-03-06 10:48:00,32.7,26.0,30.24,NW,315,0.0,6.0,76,0.00,,,0.00,WUHU21023XXSP,2013-03-06 16:48:00,
2013-03-06 13:41:00,35.8,27.0,30.24,WNW,292,0.0,10.0,70,0.00,,,0.00,WUHU21023XXSP,2013-03-06 19:41:00,
2013-03-06 13:52:00,35.8,27.0,30.24,NW,315,0.0,7.0,70,0.00,,,0.00,WUHU21023XXSP,2013-03-06 19:52:00,
2013-03-06 14:03:00,36.0,27.1,30.24,NNW,337,6.0,8.0,70,0.00,,,0.00,WUHU21023XXSP,2013-03-06 20:03:00,
2013-03-06 14:09:00,36.0,26.8,30.24,NW,315,5.0,8.0,69,0.00,,,0.00,WUHU21023XXSP,2013-03-06 20:09:00,
2013-03-06 14:16:00,36.1,26.9,30.24,NW,315,3.0,7.0,69,0.00,,,0.00,WUHU21023XXSP,2013-03-06 20:16:00,
2013-03-06 14:22:00,36.1,26.9,30.24,WNW,292,0.0,7.0,69,0.00,,,0.00,WUHU21023XXSP,2013-03-06 20:22:00,
2013-03-06 14:28:00,36.0,26.8,30.24,NW,315,7.0,7.0,69,0.00,,,0.00,WUHU21023XXSP,2013-03-06 20:28:00,
2013-03-06 14:35:00,36.0,26.8,30.24,NW,315,3.0,7.0,69,0.00,,,0.00,WUHU21023XXSP,2013-03-06 20:35:00,
2013-03-06 14:41:00,36.0,26.8,30.24,NW,315,5.0,5.0,69,0.00,,,0.00,WUHU21023XXSP,2013-03-06 20:41:00,
2013-03-06 14:48:00,36.1,26.9,30.24,NW,315,0.0,5.0,69,0.00,,,0.00,WUHU21023XXSP,2013-03-06 20:48:00,
2013-03-06 14:54:00,36.3,27.1,30.24,WNW,292,3.0,3.0,69,0.00,,,0.00,WUHU21023XXSP,2013-03-06 20:54:00,
2013-03-06 15:01:00,36.3,26.8,30.24,NNW,337,7.0,7.0,68,0.00,,,0.00,WUHU21023XXSP,2013-03-06 21:01:00,
2013-03-06 15:07:00,36.1,26.6,30.25,NW,315,4.0,7.0,68,0.00,,,0.00,WUHU21023XXSP,2013-03-06 21:07:00,
2013-03-06 15:13:00,36.0,26.8,30.24,NW,315,5.0,7.0,69,0.00,,,0.00,WUHU21023XXSP,2013-03-06 21:13:00,
2013-03-06 15:20:00,35.4,26.2,30.25,NW,315,0.0,7.0,69,0.00,,,0.00,WUHU21023XXSP,2013-03-06 21:20:00,
2013-03-06 15:26:00,35.2,26.1,30.25,NW,315,0.0,7.0,69,0.00,,,0.00,WUHU21023XXSP,2013-03-06 21:26:00,
2013-03-06 15:33:00,34.9,25.7,30.26,NW,315,0.0,5.0,69,0.00,,,0.00,WUHU21023XXSP,2013-03-06 21:33:00,
2013-03-06 15:39:00,34.7,25.9,30.26,NW,315,0.0,5.0,70,0.00,,,0.00,WUHU21023XXSP,2013-03-06 21:39:00,
2013-03-06 15:46:00,34.3,25.5,30.26,WNW,292,0.0,5.0,70,0.00,,,0.00,WUHU21023XXSP,2013-03-06 21:46:00,
2013-03-06 15:52:00,34.3,25.8,30.26,West,270,0.0,0.0,71,0.00,,,0.00,WUHU21023XXSP,2013-03-06 21:52:00,
2013-03-06 15:58:00,34.2,25.7,30.26,WNW,292,0.0,0.0,71,0.00,,,0.00,WUHU21023XXSP,2013-03-06 21:58:00,
2013-03-06 16:05:00,34.0,25.5,30.26,NW,315,0.0,4.0,71,0.00,,,0.00,WUHU21023XXSP,2013-03-06 22:05:00,
2013-03-06 16:11:00,34.0,25.5,30.26,WNW,292,0.0,3.0,71,0.00,,,0.00,WUHU21023XXSP,2013-03-06 22:11:00,
2013-03-06 16:18:00,33.8,25.3,30.27,WNW,292,0.0,0.0,71,0.00,,,0.00,WUHU21023XXSP,2013-03-06 22:18:00,
2013-03-06 16:24:00,33.8,25.6,30.27,NW,315,0.0,0.0,72,0.00,,,0.00,WUHU21023XXSP,2013-03-06 22:24:00,
2013-03-06 16:31:00,33.6,25.5,30.27,WNW,292,3.0,3.0,72,0.00,,,0.00,WUHU21023XXSP,2013-03-06 22:31:00,
2013-03-06 16:37:00,33.4,25.3,30.27,WNW,292,0.0,3.0,72,0.00,,,0.00,WUHU21023XXSP,2013-03-06 22:37:00,
2013-03-06 16:43:00,33.3,25.1,30.27,West,270,7.0,7.0,72,0.00,,,0.00,WUHU21023XXSP,2013-03-06 22:43:00,
2013-03-06 16:50:00,32.9,24.8,30.28,WNW,292,0.0,7.0,72,0.00,,,0.00,WUHU21023XXSP,2013-03-06 22:50:00,
2013-03-06 16:56:00,32.7,25.0,30.27,WNW,292,0.0,0.0,73,0.00,,,0.00,WUHU21023XXSP,2013-03-06 22:56:00,
2013-03-06 17:03:00,32.5,24.8,30.28,NW,315,0.0,0.0,73,0.00,,,0.00,WUHU21023XXSP,2013-03-06 23:03:00,
2013-03-06 17:09:00,32.4,24.7,30.28,WNW,292,0.0,0.0,73,0.00,,,0.00,WUHU21023XXSP,2013-03-06 23:09:00,
2013-03-06 17:15:00,32.2,24.8,30.28,WNW,292,0.0,6.0,74,0.00,,,0.00,WUHU21023XXSP,2013-03-06 23:15:00,
2013-03-06 17:22:00,31.8,24.5,30.28,WNW,292,0.0,0.0,74,0.00,,,0.00,WUHU21023XXSP,2013-03-06 23:22:00,
2013-03-06 17:28:00,31.8,24.5,30.28,NW,315,4.0,4.0,74,0.00,,,0.00,WUHU21023XXSP,2013-03-06 23:28:00,
2013-03-06 17:35:00,31.8,24.8,30.28,WNW,292,0.0,4.0,75,0.00,,,0.00,WUHU21023XXSP,2013-03-06 23:35:00,
2013-03-06 17:41:00,31.6,24.6,30.29,WNW,292,0.0,0.0,75,0.00,,,0.00,WUHU21023XXSP,2013-03-06 23:41:00,
2013-03-06 17:48:00,31.5,24.4,30.28,WNW,292,0.0,0.0,75,0.00,,,0.00,WUHU21023XXSP,2013-03-06 23:48:00,
2013-03-06 17:54:00,31.3,24.3,30.28,NW,315,0.0,0.0,75,0.00,,,0.00,WUHU21023XXSP,2013-03-06 23:54:00,
2013-03-06 18:01:00,31.3,24.3,30.28,NW,315,0.0,0.0,75,0.00,,,0.00,WUHU21023XXSP,2013-03-07 00:01:00,
2013-03-06 18:07:00,31.3,24.3,30.29,NW,315,0.0,0.0,75,0.00,,,0.00,WUHU21023XXSP,2013-03-07 00:07:00,
2013-03-06 18:13:00,31.1,24.4,30.29,NW,315,2.0,2.0,76,0.00,,,0.00,WUHU21023XXSP,2013-03-07 00:13:00,
2013-03-06 18:20:00,30.9,24.2,30.29,NW,315,0.0,2.0,76,0.00,,,0.00,WUHU21023XXSP,2013-03-07 00:20:00,
2013-03-06 18:26:00,30.9,24.2,30.30,NW,315,0.0,0.0,76,0.00,,,0.00,WUHU21023XXSP,2013-03-07 00:26:00,
2013-03-06 18:33:00,30.9,24.2,30.30,NW,315,0.0,0.0,76,0.00,,,0.00,WUHU21023XXSP,2013-03-07 00:33:00,
2013-03-06 18:39:00,30.7,24.0,30.30,NW,315,0.0,0.0,76,0.00,,,0.00,WUHU21023XXSP,2013-03-07 00:39:00,
2013-03-06 18:45:00,30.7,24.0,30.30,NW,315,0.0,0.0,76,0.00,,,0.00,WUHU21023XXSP,2013-03-07 00:45:00,
2013-03-06 18:52:00,30.7,24.0,30.30,NW,315,0.0,0.0,76,0.00,,,0.00,WUHU21023XXSP,2013-03-07 00:52:00,
2013-03-06 18:58:00,30.7,24.0,30.31,NW,315,0.0,0.0,76,0.00,,,0.00,WUHU21023XXSP,2013-03-07 00:58:00,
2013-03-06 19:05:00,30.6,24.2,30.31,NW,315,0.0,0.0,77,0.00,,,0.00,WUHU21023XXSP,2013-03-07 01:05:00,
2013-03-06 19:11:00,30.6,24.2,30.30,NW,315,0.0,0.0,77,0.00,,,0.00,WUHU21023XXSP,2013-03-07 01:11:00,
2013-03-06 19:18:00,30.6,24.2,30.31,NW,315,0.0,0.0,77,0.00,,,0.00,WUHU21023XXSP,2013-03-07 01:18:00,
2013-03-06 19:24:00,30.6,24.2,30.30,NW,315,0.0,0.0,77,0.00,,,0.00,WUHU21023XXSP,2013-03-07 01:24:00,
2013-03-06 19:30:00,30.6,24.2,30.30,NW,315,0.0,0.0,77,0.00,,,0.00,WUHU21023XXSP,2013-03-07 01:30:00,
2013-03-06 19:37:00,30.4,24.0,30.30,NW,315,0.0,0.0,77,0.00,,,0.00,WUHU21023XXSP,2013-03-07 01:37:00,
2013-03-06 19:43:00,30.4,24.0,30.30,NW,315,0.0,0.0,77,0.00,,,0.00,WUHU21023XXSP,2013-03-07 01:43:00,
2013-03-06 19:50:00,30.4,24.0,30.30,NW,315,0.0,0.0,77,0.00,,,0.00,WUHU21023XXSP,2013-03-07 01:50:00,
2013-03-06 19:56:00,30.4,24.0,30.30,NW,315,0.0,0.0,77,0.00,,,0.00,WUHU21023XXSP,2013-03-07 01:56:00,
2013-03-06 20:03:00,30.4,24.0,30.30,NW,315,0.0,0.0,77,0.00,,,0.00,WUHU21023XXSP,2013-03-07 02:03:00,
2013-03-06 20:09:00,30.2,23.8,30.30,NW,315,0.0,0.0,77,0.00,,,0.00,WUHU21023XXSP,2013-03-07 02:09:00,
2013-03-06 20:15:00,30.2,23.8,30.30,NW,315,0.0,0.0,77,0.00,,,0.00,WUHU21023XXSP,2013-03-07 02:15:00,
2013-03-06 20:22:00,30.2,23.8,30.30,NW,315,0.0,0.0,77,0.00,,,0.00,WUHU21023XXSP,2013-03-07 02:22:00,
2013-03-06 20:28:00,30.2,24.2,30.30,NW,315,0.0,0.0,78,0.00,,,0.00,WUHU21023XXSP,2013-03-07 02:28:00,
2013-03-06 20:35:00,30.0,24.0,30.30,NW,315,0.0,0.0,78,0.00,,,0.00,WUHU21023XXSP,2013-03-07 02:35:00,
2013-03-06 20:41:00,30.0,24.0,30.30,NW,315,0.0,0.0,78,0.00,,,0.00,WUHU21023XXSP,2013-03-07 02:41:00,
2013-03-06 20:48:00,30.0,24.0,30.31,NW,315,0.0,0.0,78,0.00,,,0.00,WUHU21023XXSP,2013-03-07 02:48:00,
2013-03-06 20:54:00,30.0,24.0,30.31,NW,315,0.0,0.0,78,0.00,,,0.00,WUHU21023XXSP,2013-03-07 02:54:00,
2013-03-06 21:00:00,30.0,24.0,30.31,WNW,292,0.0,0.0,78,0.00,,,0.00,WUHU21023XXSP,2013-03-07 03:00:00,
2013-03-06 21:07:00,30.0,24.0,30.31,WNW,292,0.0,0.0,78,0.00,,,0.00,WUHU21023XXSP,2013-03-07 03:07:00,
2013-03-06 21:13:00,30.0,24.0,30.31,WNW,292,0.0,0.0,78,0.00,,,0.00,WUHU21023XXSP,2013-03-07 03:13:00,
2013-03-06 21:20:00,30.0,24.0,30.31,WNW,292,0.0,0.0,78,0.00,,,0.00,WUHU21023XXSP,2013-03-07 03:20:00,
2013-03-06 21:26:00,30.0,24.0,30.31,WNW,292,0.0,0.0,78,0.00,,,0.00,WUHU21023XXSP,2013-03-07 03:26:00,
2013-03-06 21:33:00,30.0,24.0,30.30,WNW,292,0.0,0.0,78,0.00,,,0.00,WUHU21023XXSP,2013-03-07 03:33:00,
2013-03-06 21:39:00,30.0,24.0,30.31,WNW,292,0.0,0.0,78,0.00,,,0.00,WUHU21023XXSP,2013-03-07 03:39:00,
2013-03-06 21:45:00,30.0,24.0,30.31,WNW,292,0.0,0.0,78,0.00,,,0.00,WUHU21023XXSP,2013-03-07 03:45:00,
2013-03-06 21:52:00,30.0,24.0,30.30,WNW,292,0.0,0.0,78,0.00,,,0.00,WUHU21023XXSP,2013-03-07 03:52:00,
2013-03-06 21:58:00,29.8,23.8,30.31,WNW,292,0.0,0.0,78,0.00,,,0.00,WUHU21023XXSP,2013-03-07 03:58:00,
2013-03-06 22:05:00,29.8,23.8,30.31,WNW,292,0.0,0.0,78,0.00,,,0.00,WUHU21023XXSP,2013-03-07 04:05:00,
2013-03-06 22:11:00,29.8,23.8,30.31,WNW,292,0.0,0.0,78,0.00,,,0.00,WUHU21023XXSP,2013-03-07 04:11:00,
2013-03-06 22:18:00,29.8,23.8,30.30,WNW,292,0.0,0.0,78,0.00,,,0.00,WUHU21023XXSP,2013-03-07 04:18:00,
2013-03-06 22:24:00,29.7,23.6,30.31,WNW,292,0.0,0.0,78,0.00,,,0.00,WUHU21023XXSP,2013-03-07 04:24:00,
2013-03-06 22:30:00,29.7,23.6,30.31,NW,315,0.0,0.0,78,0.00,,,0.00,WUHU21023XXSP,2013-03-07 04:30:00,
2013-03-06 22:37:00,29.5,23.4,30.30,NW,315,0.0,0.0,78,0.00,,,0.00,WUHU21023XXSP,2013-03-07 04:37:00,
2013-03-06 22:43:00,29.5,23.1,30.30,NW,315,0.0,0.0,77,0.00,,,0.00,WUHU21023XXSP,2013-03-07 04:43:00,
2013-03-06 22:50:00,29.5,23.1,30.30,NW,315,0.0,0.0,77,0.00,,,0.00,WUHU21023XXSP,2013-03-07 04:50:00,
2013-03-06 22:56:00,29.5,23.1,30.30,NW,315,0.0,0.0,77,0.00,,,0.00,WUHU21023XXSP,2013-03-07 04:56:00,